GFSNW_700_rhum_003.txt.gz
RH
98 100 95 100 93 100 100 100 100 81 89 100 98 98 98 98 98 99 92 73 64 57 60 71 76 63 65 60 78 98 99 99 100 99 98 92 87 82 66 51 55 47 43 38
98 99 94 100 94 99 100 100 99 78 99 99 98 99 98 98 98 99 82 76 70 63 64 68 75 70 60 84 71 99 96 100 100 100 94 99 97 79 72 63 54 47 39 38
97 99 98 100 97 100 99 100 90 100 100 98 100 99 98 98 98 95 78 84 85 83 75 71 78 82 72 68 74 100 99 94 67 55 58 84 93 88 70 62 55 47 46 41
99 99 98 99 99 100 100 99 98 99 98 96 98 99 98 99 100 82 89 98 93 89 73 74 86 81 86 77 79 98 98 79 64 58 57 70 70 77 82 77 68 55 47 48
98 98 100 97 100 100 100 99 96 87 100 100 98 99 98 98 99 100 98 98 96 97 76 64 75 76 80 97 92 83 98 87 71 67 64 62 63 67 72 71 70 63 54 50
98 100 100 100 100 100 99 99 100 65 81 95 94 85 93 99 100 99 94 96 98 94 87 83 88 77 85 91 77 80 100 97 68 60 68 68 64 60 64 66 66 61 60 56
98 99 100 98 100 100 97 100 100 93 48 83 93 87 97 99 99 99 96 98 100 93 100 91 85 99 99 99 94 78 88 91 79 78 64 66 51 50 56 59 58 63 62 57
90 99 100 94 100 100 95 100 100 100 65 56 86 81 99 99 100 99 100 96 93 100 100 99 100 100 94 100 99 97 96 98 92 83 83 70 56 54 53 57 47 50 55 56
100 98 87 91 98 100 87 98 100 100 73 62 66 92 99 99 100 100 99 100 100 100 100 99 97 99 98 100 98 100 99 99 99 84 60 63 44 39 41 51 50 42 42 46
86 90 100 96 91 98 84 93 100 100 84 42 70 93 97 99 100 99 100 100 100 100 100 99 94 98 97 98 98 99 100 100 99 94 95 68 52 40 40 47 45 38 34 31
99 98 99 92 82 96 82 84 100 100 82 43 72 82 92 99 100 100 99 100 99 99 99 100 88 82 84 87 93 97 97 99 98 99 99 86 57 50 46 47 40 39 38 37
100 99 99 90 86 92 75 78 100 100 75 48 70 63 81 99 100 100 98 92 84 89 97 90 82 82 73 68 79 95 93 78 71 75 77 58 53 52 49 51 54 49 43 47
100 99 100 100 89 91 69 69 99 99 68 51 66 72 64 91 99 99 99 100 100 97 100 99 94 85 79 70 67 76 77 78 72 70 64 60 61 59 53 43 42 46 54 57
100 99 100 91 86 86 64 63 99 99 76 73 62 80 62 78 97 99 99 99 98 100 100 100 96 77 77 87 69 68 72 70 70 69 66 66 65 63 52 47 53 55 50 54
98 98 100 82 92 81 70 67 100 99 91 89 58 54 72 67 89 98 97 97 98 100 93 99 97 92 76 60 84 76 56 64 60 68 64 63 60 53 58 61 63 61 60 66
100 98 99 80 100 84 74 93 99 100 98 98 87 55 57 71 78 84 79 72 80 85 78 76 74 71 64 61 57 43 45 48 49 51 50 57 64 67 66 68 69 70 72 78
98 99 86 100 100 84 70 92 94 100 100 100 95 81 58 61 62 70 69 66 68 78 83 79 74 74 77 75 69 49 58 62 68 73 78 76 72 67 64 68 75 80 83 81
99 98 86 100 100 83 77 95 97 99 100 100 88 84 74 63 69 72 69 77 80 81 82 83 84 80 79 71 44 50 54 62 74 74 77 80 82 76 71 77 86 88 85 73
98 99 95 100 100 79 74 100 100 100 100 99 97 95 84 73 66 70 74 70 80 72 79 81 73 68 59 45 38 40 45 50 56 72 76 84 85 76 79 90 91 78 45 35
98 98 98 98 98 83 94 100 95 100 100 100 97 86 86 84 91 86 86 90 90 82 76 70 76 61 46 51 51 53 64 65 70 82 70 45 68 70 63 64 53 39 35 30
97 98 98 99 99 93 99 98 92 98 97 97 99 93 88 91 99 100 98 99 98 98 94 96 97 73 47 61 69 76 83 81 75 76 65 61 79 74 58 52 42 33 30 29
98 98 98 99 100 82 97 89 87 64 72 90 86 94 93 88 100 99 98 97 94 86 89 86 72 47 41 40 46 79 96 95 75 77 75 59 72 67 50 39 31 31 33 33
97 98 97 98 94 80 60 79 69 52 54 52 50 65 88 94 99 96 92 87 85 86 77 75 44 32 23 25 43 57 97 99 84 88 64 50 47 44 34 32 34 35 34 33
97 98 97 91 83 62 57 52 46 39 37 40 42 53 98 100 100 91 87 86 84 75 70 37 28 27 27 23 38 70 97 94 95 86 54 53 42 36 36 37 37 36 32 30
97 97 92 78 63 56 53 57 49 46 45 42 48 78 82 100 93 69 65 70 66 52 28 22 19 20 22 23 45 80 100 100 95 64 61 44 38 38 38 37 32 29 29 30
98 93 87 65 62 65 56 52 61 59 51 48 74 93 83 88 63 60 52 52 36 27 23 23 20 22 21 28 47 75 98 94 70 66 48 39 39 37 30 28 29 30 30 26
97 95 83 82 67 68 62 57 58 58 56 56 66 69 69 69 64 55 47 37 28 24 25 31 33 30 26 35 59 89 87 77 71 40 40 38 30 30 30 30 30 29 25 18

GFSNW_700_rhum_006.txt.gz
RH
97 99 90 100 99 99 98 98 100 98 100 99 98 99 98 98 98 98 97 89 86 64 91 80 72 81 92 75 82 94 95 98 99 96 92 93 92 99 90 54 56 46 45 45
98 97 99 97 98 98 94 99 100 99 99 99 98 93 99 98 98 98 98 71 71 62 59 62 62 84 74 73 77 84 97 99 99 90 100 99 100 97 74 76 57 49 46 46
98 99 99 99 87 99 96 99 99 99 99 93 99 100 98 98 98 98 98 73 76 69 62 58 89 70 68 60 65 81 99 97 99 93 85 79 92 74 59 72 60 48 44 44
98 98 100 98 96 100 95 99 98 98 98 94 98 99 99 99 99 98 91 78 86 76 75 70 62 74 69 71 66 91 98 99 99 68 65 74 76 68 64 69 61 55 45 44
97 96 99 93 99 100 98 100 99 98 96 97 100 90 98 98 98 99 91 71 83 78 80 68 71 70 81 72 83 99 97 90 70 65 67 72 74 68 63 64 63 60 51 50
96 99 98 98 100 98 98 99 99 100 98 87 97 95 98 98 99 98 99 88 88 92 80 93 77 75 67 89 82 80 81 80 78 66 63 63 63 64 68 66 68 70 68 48
95 97 98 98 100 100 100 99 100 99 98 95 81 90 97 94 98 99 97 100 98 89 96 96 87 89 77 72 99 93 68 72 89 66 66 74 54 50 54 58 55 58 61 61
94 99 98 99 92 98 99 99 99 99 98 99 93 79 94 98 98 99 98 100 95 99 89 98 95 99 82 93 95 96 96 84 90 84 72 65 59 53 52 56 54 58 63 62
83 97 99 100 99 94 100 99 100 98 98 99 92 62 83 98 98 99 98 100 100 99 99 99 98 98 89 96 99 98 100 97 94 83 70 74 51 38 42 54 59 54 50 58
83 100 99 99 92 100 98 99 100 100 98 98 97 81 76 99 99 99 99 99 99 99 99 100 91 93 86 96 99 99 100 100 99 96 85 68 61 51 40 51 50 42 39 38
75 95 99 97 100 99 96 99 97 100 98 99 93 77 93 98 99 99 99 100 99 99 100 100 83 91 86 90 91 96 98 98 98 98 94 87 59 59 43 46 44 37 47 41
90 99 98 98 100 96 87 95 95 100 99 97 78 57 83 97 99 99 99 99 98 99 98 91 98 86 87 85 99 96 99 92 94 87 82 65 62 57 55 51 48 49 39 38
88 98 94 95 100 86 80 90 91 100 99 99 85 66 90 96 99 99 99 100 98 98 92 93 96 82 72 70 72 72 90 87 80 78 78 64 57 56 57 55 54 45 43 48
84 100 100 99 100 85 85 88 84 100 99 99 73 70 77 93 96 99 99 100 100 99 98 97 86 79 75 70 68 67 72 81 78 76 68 65 59 60 62 63 50 50 52 52
62 98 99 99 100 90 93 95 81 100 100 99 95 64 72 87 95 99 100 99 99 100 98 99 100 89 90 81 79 74 70 69 68 68 66 66 64 66 60 50 50 58 60 56
16 96 100 98 99 100 100 100 81 98 100 100 94 83 70 85 92 98 99 99 98 93 99 98 99 99 97 86 64 51 77 68 62 67 64 54 51 59 53 55 63 65 67 65
28 98 98 98 100 100 100 97 66 81 100 100 95 92 70 76 92 93 96 94 91 86 95 90 83 78 76 68 61 46 49 50 50 49 48 47 54 58 64 65 64 69 74 76
60 99 98 98 100 100 100 96 70 84 100 100 95 94 86 80 92 94 90 86 91 90 93 90 88 86 85 79 58 55 49 50 56 60 65 71 75 74 73 73 72 77 82 86
91 98 98 98 99 99 96 94 97 88 100 98 98 82 71 77 94 99 97 90 95 91 94 88 87 86 72 47 38 33 32 37 41 57 72 73 76 81 84 80 79 86 91 91
96 97 98 98 98 100 94 100 100 100 100 100 99 96 88 77 73 88 96 98 95 79 74 74 80 63 48 48 46 42 41 47 54 65 73 79 85 85 86 82 88 93 90 56
97 98 98 98 100 100 100 99 98 98 99 95 93 98 96 90 90 87 84 86 83 83 75 77 86 50 33 39 38 41 48 59 69 79 86 85 72 45 67 80 90 76 44 33
96 97 97 98 98 98 95 98 92 75 85 93 78 96 97 91 97 98 99 95 86 92 91 89 75 48 45 49 47 47 63 74 73 76 76 68 66 53 71 67 56 43 32 31
98 98 97 98 97 97 81 84 90 69 75 82 69 62 94 96 92 98 93 88 97 93 79 68 55 45 36 28 36 47 66 90 90 87 82 74 70 61 70 58 42 31 34 34
98 98 97 97 87 72 60 53 52 56 51 33 54 60 89 99 97 95 88 80 87 81 72 56 45 40 29 26 23 42 64 97 95 94 86 82 60 59 50 36 33 36 36 32
97 96 97 85 80 66 62 52 49 47 44 34 44 72 71 96 90 88 81 74 76 59 37 28 28 24 27 28 28 40 84 100 99 91 89 72 50 43 35 37 36 33 28 28
96 95 95 79 85 74 67 54 42 42 39 37 59 88 90 92 83 74 62 57 40 29 26 26 25 20 19 22 32 60 98 100 94 94 82 55 42 38 38 32 28 28 29 29
96 98 100 99 87 74 60 58 50 44 44 43 71 74 72 74 78 61 51 44 34 31 26 24 22 20 22 22 42 80 100 99 99 89 62 43 39 36 29 30 31 32 31 29

GFSNW_700_rhum_009.txt.gz
RH
97 97 95 98 85 100 99 99 86 99 99 98 98 97 92 84 71 94 99 98 91 84 95 87 80 68 62 74 92 96 94 98 97 78 84 72 93 99 85 77 84 99 48 47
99 91 97 99 74 100 98 98 99 94 99 98 98 93 92 86 87 98 98 98 83 73 85 89 65 64 62 71 93 96 97 97 96 99 99 99 99 96 98 77 76 91 56 48
98 92 99 93 96 96 99 95 98 100 99 99 99 94 96 89 93 97 98 98 77 75 70 71 69 69 64 82 96 97 97 98 98 99 95 90 99 95 82 99 100 51 45 42
97 93 95 100 97 98 98 91 98 79 97 96 90 99 94 99 99 99 99 99 75 76 72 69 67 64 70 82 78 94 98 95 99 100 100 96 56 80 91 100 83 46 46 42
90 89 96 94 94 98 90 80 99 95 95 99 98 99 98 99 96 99 98 98 72 76 79 74 69 64 77 72 85 91 96 97 99 100 92 100 85 93 100 78 54 54 49 42
98 97 97 98 87 100 99 86 84 98 89 98 98 91 87 75 98 98 96 100 93 86 75 78 72 78 74 74 80 83 94 98 99 88 98 98 90 83 66 60 60 49 52 53
96 88 97 100 98 97 98 75 97 99 99 97 95 95 94 93 90 98 94 99 97 75 90 94 90 99 88 78 98 95 90 86 90 68 64 72 58 60 61 54 56 54 50 65
74 74 97 98 98 95 99 83 78 92 99 99 99 98 85 74 85 100 99 97 96 93 98 100 99 96 91 83 86 84 91 95 80 84 75 66 64 58 56 62 55 58 58 65
34 72 98 96 98 99 98 99 99 99 99 98 100 99 90 82 90 98 98 99 100 99 100 99 99 98 98 95 87 92 86 95 90 83 77 74 47 42 47 54 60 60 59 61
33 44 96 98 97 94 89 97 100 100 99 98 99 98 93 86 90 98 99 98 100 98 100 93 98 86 89 86 94 100 99 100 97 84 86 65 60 55 43 58 52 52 52 52
45 42 95 97 99 100 100 100 100 99 99 99 100 96 99 90 96 98 99 99 100 100 100 99 91 97 81 87 87 94 98 98 99 99 94 80 55 57 45 45 37 43 44 38
32 37 96 98 98 99 100 93 100 100 100 98 100 99 87 73 96 98 98 99 99 100 99 98 98 93 92 91 96 93 98 88 83 86 75 69 62 60 52 46 46 47 46 37
34 38 78 99 98 94 95 90 100 100 99 99 99 96 91 73 98 98 98 99 99 98 96 97 89 91 86 94 83 76 87 93 92 92 70 62 66 57 57 56 56 54 53 46
42 31 81 99 100 99 96 80 100 96 99 96 98 88 78 72 96 99 99 99 99 99 99 99 91 82 76 74 70 70 67 74 86 84 73 68 65 61 58 62 64 55 53 52
34 28 91 99 93 98 98 90 99 93 98 99 99 95 70 77 96 99 99 99 99 99 100 98 99 87 87 80 72 70 66 62 66 57 66 68 63 64 66 63 56 55 52 56
55 24 82 100 91 99 98 100 98 80 86 99 99 85 70 74 89 99 99 99 99 99 99 99 94 99 95 86 80 69 70 74 69 70 69 67 69 71 71 69 55 56 64 64
54 20 74 94 96 99 100 99 71 80 85 99 98 87 74 71 88 99 99 99 99 99 100 98 97 99 100 94 77 66 53 71 69 66 64 68 54 46 58 54 60 68 70 72
54 22 78 98 99 98 98 93 80 82 91 100 96 88 78 71 84 97 96 96 92 90 94 94 87 91 91 78 55 56 58 54 60 56 54 55 64 65 68 70 71 72 75 80
37 23 68 98 98 98 97 99 100 80 88 98 96 80 71 72 96 93 97 96 93 90 94 90 88 89 78 45 40 39 45 53 49 54 64 69 75 77 78 79 79 80 83 86
41 34 96 99 98 98 99 99 100 88 100 96 99 88 77 70 93 100 99 97 96 94 97 92 93 60 51 44 46 38 35 39 40 53 61 72 79 78 80 83 85 89 93 95
98 97 97 97 98 98 98 98 96 98 99 89 95 97 86 80 96 100 98 95 92 85 78 76 73 37 29 36 38 40 48 46 47 60 75 83 84 85 84 79 88 93 97 97
96 95 98 98 98 98 97 99 83 84 90 90 65 97 100 99 100 94 89 83 76 86 96 90 68 30 34 42 47 51 57 61 60 66 73 80 85 84 58 76 93 99 94 50
96 97 97 97 98 97 93 97 82 68 76 91 59 79 100 100 100 98 86 86 93 94 87 74 51 45 41 40 34 49 64 74 82 81 84 89 83 68 73 81 88 72 43 31
96 97 97 97 88 86 72 65 61 65 60 48 60 72 98 98 99 88 81 85 86 82 78 48 36 35 40 42 33 27 49 77 92 93 91 91 82 77 78 80 62 38 33 35
96 96 97 92 94 87 80 66 61 62 50 37 59 92 88 99 88 89 77 80 77 65 40 28 33 29 26 31 32 31 52 98 97 97 97 94 88 79 75 58 35 35 35 28
96 96 97 93 94 90 78 58 64 64 55 43 68 95 92 91 80 74 73 72 48 32 29 27 26 26 22 23 30 41 85 100 99 98 97 96 88 62 45 35 37 30 28 29
96 96 99 99 96 81 73 59 54 56 52 46 64 75 64 68 67 72 60 48 37 36 34 32 28 26 22 22 30 57 100 98 99 97 92 91 59 41 38 35 28 30 33 33

GFSNW_700_rhum_012.txt.gz
RH
75 96 96 94 99 96 96 98 98 94 99 98 98 95 88 99 92 94 89 93 99 91 87 88 92 78 63 63 62 76 79 98 96 83 87 95 87 74 86 79 66 73 99 69
73 98 98 97 98 86 98 99 97 99 99 98 99 93 96 100 99 100 100 94 97 86 83 96 81 78 62 66 93 95 96 98 96 88 95 96 98 90 73 74 68 81 98 71
76 94 98 96 96 98 98 98 98 99 99 98 98 86 99 100 99 100 98 98 96 81 95 89 82 73 68 69 91 96 99 96 94 86 98 88 100 93 89 91 95 80 86 84
80 90 95 86 96 98 88 95 99 83 98 98 97 99 100 99 100 100 97 98 98 84 85 82 74 68 70 74 93 96 98 97 98 96 94 99 98 96 97 99 93 85 69 58
76 88 81 92 98 94 97 100 98 100 76 96 100 99 99 99 100 97 97 98 99 99 81 72 73 74 70 79 81 97 98 94 98 100 89 98 100 89 98 98 100 96 81 83
42 92 85 97 98 92 98 95 99 91 81 88 98 91 87 98 100 88 98 97 100 87 71 70 74 80 89 98 92 98 98 98 99 99 100 100 99 92 87 97 97 99 99 75
38 89 75 97 96 96 96 98 96 95 96 100 88 84 98 95 98 100 100 95 96 94 71 71 84 91 79 94 92 97 98 99 100 99 99 78 69 82 97 95 100 99 60 45
22 48 82 97 98 90 98 88 100 84 95 95 96 98 100 97 77 71 94 95 95 97 90 92 98 90 87 91 81 91 96 99 95 88 82 70 68 64 94 98 75 71 63 56
17 47 83 100 100 100 99 98 96 91 83 91 99 100 100 95 94 94 94 99 98 98 99 99 99 98 85 85 89 88 92 94 100 88 84 75 48 44 57 59 61 59 59 64
14 44 62 96 98 97 98 98 99 98 87 98 100 94 98 98 86 83 90 98 99 100 97 99 98 90 94 90 97 99 97 99 98 98 94 64 57 48 51 60 50 48 48 52
12 22 45 96 98 98 98 96 100 94 99 99 99 95 99 94 99 92 96 98 98 100 99 99 94 99 81 83 84 94 89 86 94 98 89 77 63 58 51 46 44 51 53 53
10 17 40 97 98 98 98 98 100 94 86 99 97 95 100 96 85 81 97 98 99 99 99 97 87 98 93 80 79 83 85 82 82 75 66 62 67 64 52 44 45 46 44 43
10 20 44 96 99 100 100 93 98 82 98 95 86 99 96 100 90 84 99 98 99 99 93 89 93 99 86 79 89 84 82 84 91 78 65 68 71 68 52 53 54 54 54 49
15 23 30 95 99 93 92 97 91 100 100 94 94 97 84 79 81 89 99 99 99 99 97 100 100 96 80 82 80 81 76 78 77 71 67 62 64 61 62 62 63 62 54 54
25 18 30 88 98 98 91 88 100 100 95 100 98 92 92 78 73 98 99 99 99 99 99 100 99 89 83 80 78 76 68 65 66 59 62 67 66 64 66 66 61 59 56 53
33 22 23 80 97 100 98 99 100 100 94 100 99 89 85 75 81 98 99 99 99 99 99 99 98 95 94 93 85 73 70 69 75 70 76 72 68 68 71 71 69 56 54 64
42 38 26 90 99 100 98 97 89 99 95 100 99 95 80 80 80 100 100 99 99 99 99 99 98 97 98 94 86 71 75 68 65 70 71 71 68 63 65 72 68 60 67 71
46 38 25 91 100 98 98 86 81 87 92 100 99 94 89 79 87 99 100 99 99 99 99 99 94 94 99 97 66 73 65 61 68 69 69 72 70 58 54 67 62 67 75 77
57 32 23 80 100 98 87 94 92 92 93 98 96 87 80 83 95 100 99 98 95 94 93 89 88 93 73 61 54 52 52 55 62 67 62 56 59 67 69 69 72 78 80 83
66 23 36 78 100 93 92 99 96 98 100 100 99 85 85 81 99 92 100 95 98 96 91 89 82 54 42 43 40 35 37 43 50 55 59 65 70 76 79 80 83 87 91 94
99 65 90 99 100 99 98 98 99 98 96 98 76 80 79 84 99 98 98 96 89 89 81 78 63 42 38 40 42 44 46 43 43 53 69 75 74 77 80 82 87 90 95 99
99 94 98 100 98 98 97 97 97 86 95 75 56 65 87 91 98 99 98 88 79 76 76 72 47 25 32 32 32 31 39 54 53 51 56 68 82 84 85 82 85 92 100 100
87 96 96 96 98 98 96 94 93 83 81 74 51 59 81 95 100 94 89 84 82 84 79 68 44 41 44 42 41 42 48 53 66 63 60 76 88 89 80 72 86 100 100 84
96 95 96 97 96 88 82 81 84 71 63 58 58 56 98 100 98 95 82 85 86 81 77 40 30 28 36 44 43 37 40 63 76 76 76 87 92 86 73 84 99 99 70 36
95 96 96 96 98 99 90 82 75 71 57 46 60 79 92 100 97 91 78 77 72 62 36 26 28 31 32 34 40 39 35 61 84 91 94 96 96 92 90 85 88 60 34 35
94 95 96 96 99 99 92 72 62 70 62 58 95 100 100 96 89 78 78 72 50 28 29 26 26 26 27 25 30 33 45 86 93 95 99 99 94 88 90 80 57 34 36 30
96 92 96 96 99 96 82 65 72 71 62 78 94 99 88 84 78 73 60 44 30 31 36 36 34 32 28 24 26 38 66 98 98 99 98 95 96 89 74 44 35 35 29 31

GFSNW_700_rhum_015.txt.gz
RH
27 36 53 89 97 97 98 84 95 98 98 98 99 99 84 81 79 84 93 85 90 100 94 88 85 65 63 60 64 76 72 100 100 81 69 84 76 70 90 95 81 71 72 71
11 30 61 62 97 98 89 84 94 98 100 98 98 87 86 87 82 94 96 93 94 99 95 92 76 79 69 77 60 68 79 97 96 93 97 98 97 94 94 72 82 72 70 46
8 29 53 58 93 98 98 89 98 98 98 98 93 80 85 93 86 94 100 97 99 99 98 84 83 77 72 69 64 80 94 97 95 90 93 97 98 100 92 99 85 78 80 60
10 33 44 58 97 97 88 86 98 88 97 98 92 87 94 88 95 98 98 99 99 98 98 97 85 74 72 84 96 97 98 97 98 97 97 98 97 96 88 99 65 78 63 82
10 28 40 96 100 87 92 98 98 94 95 84 89 94 89 90 98 96 98 98 98 99 96 83 75 73 79 87 92 98 98 98 98 92 98 100 99 97 100 75 82 80 78 73
13 19 48 77 92 95 97 99 98 85 95 98 100 90 86 92 99 98 100 99 100 96 99 98 77 77 82 99 94 99 99 98 98 98 100 99 99 96 99 93 85 82 90 54
20 19 42 81 99 98 99 96 98 98 97 99 89 90 87 95 98 99 93 100 98 95 96 80 72 79 80 95 88 94 99 98 99 99 99 98 95 98 95 97 97 99 92 70
14 13 34 92 97 99 92 96 98 99 94 94 90 91 100 99 96 99 98 86 93 96 99 93 89 92 86 79 81 88 86 98 98 99 91 82 59 94 97 96 97 96 92 73
12 11 50 99 99 99 79 92 95 99 98 94 100 99 100 100 98 91 83 76 86 99 98 99 97 98 99 92 81 89 93 100 99 91 99 78 63 58 86 100 91 81 75 70
15 10 46 95 100 98 94 90 98 100 100 98 97 82 98 99 98 98 82 81 92 97 99 100 99 96 98 89 88 99 98 99 100 97 98 67 72 59 75 96 54 60 67 73
21 9 38 96 100 100 93 86 98 95 91 95 94 90 99 95 96 99 97 99 99 99 99 99 98 98 82 85 80 88 87 95 90 93 92 72 67 60 62 52 47 59 60 58
33 9 27 92 99 99 93 98 99 99 99 100 94 95 91 100 100 100 84 98 99 99 99 94 96 93 97 82 81 81 79 78 79 71 70 65 69 64 48 50 50 54 56 55
35 9 18 92 98 99 98 97 95 99 84 88 94 94 98 90 93 100 100 96 98 98 99 95 95 87 83 80 79 78 78 78 82 80 68 68 66 66 52 49 47 43 43 48
40 11 13 87 97 99 97 91 98 96 99 98 100 90 94 86 83 86 94 99 98 98 99 97 100 95 85 81 80 77 78 81 80 76 70 72 67 67 53 57 57 55 55 50
43 15 11 86 97 93 78 79 83 86 98 99 98 82 87 89 85 79 99 98 98 98 99 99 100 94 88 84 77 66 66 70 68 67 69 70 66 64 63 65 64 59 54 56
43 20 11 63 99 100 98 100 100 99 99 99 98 96 90 82 75 79 98 99 99 98 99 100 99 95 94 93 83 62 64 68 69 72 74 77 70 68 68 69 65 59 56 60
24 24 15 38 98 95 99 91 80 100 100 99 97 93 70 78 79 83 98 99 99 98 99 99 99 99 99 98 88 74 68 71 70 72 74 74 70 70 71 73 73 67 57 61
29 37 15 32 95 95 99 88 78 82 100 99 99 93 78 84 96 99 99 99 99 98 99 99 99 99 100 95 67 72 74 74 72 75 72 71 74 72 62 65 74 67 64 69
59 46 14 31 93 92 99 98 93 100 100 99 97 94 81 84 99 99 99 100 99 99 99 99 99 97 85 68 74 76 65 68 67 68 68 73 81 64 56 61 68 69 74 78
87 39 24 46 99 98 98 99 98 100 100 100 99 70 79 83 94 98 100 100 100 97 95 93 88 72 55 64 55 60 58 58 64 73 72 67 56 60 69 70 72 79 84 86
97 100 94 74 98 99 98 98 98 95 100 84 76 71 85 87 100 97 98 98 90 89 82 88 72 54 42 45 38 38 41 48 52 54 54 59 63 67 72 77 80 82 88 90
92 99 100 97 98 98 97 95 97 99 78 68 51 55 70 91 97 98 92 83 85 75 74 69 48 30 37 36 36 38 42 45 44 45 49 53 69 81 85 87 88 89 94 100
78 95 98 98 98 98 93 93 83 98 89 72 54 48 69 99 100 99 96 92 78 77 76 63 45 40 43 39 33 30 30 41 55 54 51 53 71 81 85 88 88 92 99 98
71 93 96 96 97 97 100 100 95 88 76 56 58 53 97 100 99 94 87 81 80 80 73 40 34 36 38 42 44 42 40 41 44 62 64 61 70 83 86 80 87 94 98 96
88 93 96 96 96 99 100 100 100 83 67 53 63 80 91 94 92 92 81 73 70 60 33 29 30 29 30 33 37 43 40 40 59 69 73 72 83 92 86 77 87 96 91 44
80 92 96 96 95 97 96 100 91 86 68 62 89 100 100 98 87 88 73 67 44 29 28 27 27 30 30 28 28 35 41 46 75 87 86 88 96 96 87 88 92 90 47 33
93 80 80 94 90 94 97 97 89 85 78 100 100 100 83 83 90 82 70 55 34 31 31 35 38 37 37 31 26 29 37 54 86 96 99 98 99 96 93 96 87 53 34 35

GFSNW_700_rhum_018.txt.gz
RH
77 24 22 36 42 94 98 98 86 85 96 97 98 100 90 81 74 70 68 72 74 81 99 91 87 76 57 63 60 62 89 97 98 82 78 69 79 67 60 87 84 90 70 56
77 10 32 41 40 86 98 95 76 97 96 98 98 98 97 89 81 78 76 86 87 93 99 96 90 86 64 71 79 67 68 98 98 91 90 99 96 88 97 88 84 76 77 56
82 13 58 48 34 78 98 99 87 98 97 98 98 100 93 89 87 91 94 99 95 99 100 100 86 77 77 80 76 78 85 86 93 94 88 96 97 96 97 97 96 80 82 72
84 16 51 31 43 99 98 93 88 96 98 99 100 89 80 86 89 90 91 99 91 99 99 97 99 81 70 85 88 97 97 96 95 95 98 98 97 97 95 96 87 91 69 71
63 17 32 32 94 97 95 95 98 96 84 94 97 85 77 82 84 86 96 94 86 99 99 98 90 74 71 86 92 97 97 97 99 97 97 99 99 99 99 98 99 100 90 73
62 12 19 93 96 98 98 99 98 98 92 97 94 86 84 84 88 87 98 95 99 96 96 98 94 96 88 89 94 100 100 99 98 88 95 98 99 96 98 100 89 94 97 27
67 11 21 87 97 97 97 98 99 97 95 95 82 84 93 95 91 99 97 99 99 97 98 99 99 100 82 76 69 79 91 99 99 95 99 98 95 100 93 72 72 77 58 57
66 10 20 94 100 98 97 97 98 99 95 92 100 97 91 92 91 96 93 97 98 99 99 99 96 84 73 62 61 69 85 100 98 99 99 86 73 99 96 98 82 80 78 72
62 13 15 94 100 83 96 99 99 97 96 91 94 91 90 95 99 98 96 96 90 89 98 99 97 88 94 88 85 87 92 99 100 98 98 89 87 82 99 98 87 80 77 74
62 20 13 82 100 97 91 100 100 100 99 93 85 85 80 98 99 99 98 91 84 89 99 98 97 82 89 84 88 96 98 97 99 98 92 80 75 68 87 78 65 73 58 57
57 29 12 82 100 100 93 100 100 95 99 97 93 89 86 94 98 98 98 98 95 99 98 98 97 85 82 88 83 85 86 92 94 99 97 75 79 70 67 57 50 63 67 65
53 35 10 59 98 100 98 100 93 92 98 93 85 86 87 98 99 98 97 98 93 99 98 98 97 97 93 88 79 75 78 73 82 79 73 73 79 76 63 54 54 58 64 66
48 44 10 33 100 100 100 100 100 88 98 98 80 88 90 99 99 99 96 96 99 99 99 99 99 99 87 86 74 75 69 76 79 75 75 72 69 70 51 51 47 57 59 60
45 43 16 27 95 100 100 100 100 99 96 94 83 87 99 100 100 98 100 100 100 99 99 99 99 98 87 87 82 78 71 72 73 70 73 71 70 70 58 56 52 48 48 57
44 35 21 18 92 100 100 99 99 99 94 98 85 92 98 99 98 98 88 97 98 99 99 98 98 98 100 93 86 74 63 68 74 75 74 73 67 68 57 61 62 57 55 52
14 21 17 17 91 100 100 98 99 99 93 98 100 100 94 93 90 92 85 98 98 99 99 99 98 99 98 97 94 69 64 64 70 72 74 72 68 66 65 65 62 59 58 57
18 16 12 13 91 99 98 99 94 96 96 98 97 94 84 82 83 84 88 98 98 98 99 99 100 91 95 94 78 62 65 74 71 72 73 73 72 69 66 68 68 68 60 56
51 32 11 10 93 100 99 100 92 100 99 98 92 98 89 87 94 88 99 99 98 99 98 98 98 98 99 98 66 70 72 78 78 71 73 74 75 72 72 72 74 71 87 79
67 47 19 14 84 99 99 100 94 100 100 97 96 99 86 90 99 100 97 99 98 98 99 100 100 98 95 70 69 70 77 65 75 72 78 88 74 73 68 60 59 85 71 73
69 48 26 24 92 98 98 98 100 100 99 99 100 80 78 76 89 98 97 98 99 99 100 99 97 75 62 70 72 64 73 64 66 71 76 86 79 95 70 60 73 74 78 79
65 91 79 50 96 98 98 98 100 99 96 94 89 91 80 81 86 96 87 97 90 94 90 97 82 55 50 68 60 57 61 57 59 74 75 72 65 59 65 69 72 79 85 88
72 86 85 84 97 97 98 99 95 88 86 81 73 70 73 81 89 98 91 83 82 82 80 76 59 37 43 43 49 39 39 43 52 57 58 52 61 74 78 78 79 81 88 95
64 94 97 96 98 99 85 99 98 100 95 67 62 62 73 90 90 97 88 89 84 79 77 62 45 46 38 41 39 40 44 44 46 46 46 48 60 72 82 85 88 90 95 100
58 90 95 95 98 98 99 100 100 100 77 54 57 70 80 88 93 94 85 83 75 75 68 40 36 32 37 44 45 40 37 42 54 58 54 58 58 71 80 92 96 98 100 94
46 76 86 87 93 96 96 98 95 96 84 71 62 70 92 99 95 86 80 76 70 62 37 30 29 27 26 29 37 43 42 44 49 63 70 66 67 81 87 92 95 99 98 96
44 55 87 100 94 94 91 89 95 100 89 84 97 99 100 96 86 91 76 75 51 35 31 29 31 30 30 31 28 31 42 46 59 78 85 84 84 90 93 94 87 97 96 56
53 51 57 88 95 96 94 94 93 93 99 100 100 98 98 89 92 83 71 63 49 42 35 35 38 37 38 38 33 27 27 42 55 82 91 91 94 97 98 96 94 97 77 36

GFSNW_700_rhum_021.txt.gz
RH
91 76 49 27 44 61 95 98 100 76 96 98 97 97 92 73 68 64 62 58 58 67 75 95 98 74 58 60 63 68 64 100 99 66 54 66 75 86 90 97 77 89 92 66
84 73 25 48 39 90 88 97 99 80 88 95 96 97 90 75 73 67 70 71 78 81 87 87 90 84 81 69 70 77 73 97 99 77 84 89 96 82 95 97 98 94 92 59
83 54 14 39 41 43 92 98 96 98 99 98 97 90 91 84 82 77 73 76 85 92 98 97 93 81 76 81 76 84 84 89 80 73 71 96 97 97 97 97 97 82 88 75
82 41 13 51 50 92 97 96 87 97 97 99 87 89 77 83 82 81 86 94 91 97 98 99 99 85 89 82 85 91 99 97 91 85 89 98 98 98 98 97 85 96 72 77
71 29 13 64 94 98 97 100 97 98 90 94 81 84 78 75 76 81 89 87 88 97 97 96 99 88 94 86 76 90 99 94 93 87 93 98 97 97 100 98 99 96 97 82
56 22 15 88 98 96 99 95 96 99 94 93 98 96 78 79 88 86 88 92 96 98 98 95 90 94 96 91 100 100 100 100 99 95 97 98 98 99 99 99 100 93 96 42
65 31 16 76 98 100 97 95 98 99 93 88 81 82 79 81 91 95 94 99 97 99 98 100 93 96 94 96 87 96 97 100 100 98 98 98 98 100 100 99 100 97 72 64
27 25 25 75 95 87 89 99 99 98 91 88 82 81 84 96 96 97 97 92 97 95 99 99 98 80 79 62 66 70 75 89 99 98 99 92 98 99 100 99 99 90 54 69
17 15 12 68 87 78 95 98 98 98 96 90 95 84 88 94 92 97 96 94 99 100 98 95 99 87 86 83 86 93 94 99 100 99 98 97 86 98 96 99 76 80 69 78
32 19 9 54 89 82 97 100 98 98 98 91 92 84 83 92 91 93 98 98 96 93 94 97 97 94 86 79 82 90 94 92 96 93 98 79 77 75 72 66 67 73 68 72
24 25 9 45 86 86 95 100 99 99 99 93 83 83 88 91 95 97 97 97 93 96 99 99 92 96 80 77 77 83 85 90 90 96 96 84 79 68 71 60 59 70 60 66
27 33 25 24 84 98 97 99 100 90 96 96 95 91 89 98 100 99 98 97 98 96 99 98 99 93 94 87 83 76 79 76 80 81 73 73 71 74 68 56 58 70 67 64
37 29 32 17 71 97 98 100 99 100 99 94 85 85 90 92 91 88 100 98 96 97 98 98 99 94 94 88 79 76 75 79 78 81 76 76 72 69 57 52 57 62 64 67
10 13 24 18 53 97 94 99 99 98 100 100 100 92 84 88 100 95 97 96 98 99 98 99 98 99 86 86 85 75 83 78 74 73 74 71 70 68 58 56 51 53 59 62
22 13 11 17 32 93 99 99 99 99 100 97 92 87 90 91 91 97 99 99 98 98 98 98 99 99 99 98 89 68 71 67 74 79 78 76 71 70 59 58 58 55 53 55
38 41 17 11 21 93 96 98 99 99 100 99 97 90 88 89 90 88 94 97 96 98 98 98 98 100 98 91 87 66 60 59 69 70 74 75 74 71 64 65 62 58 58 60
36 55 48 8 18 90 97 98 97 98 98 97 89 94 90 89 86 80 87 88 98 98 99 100 94 98 100 95 80 66 60 65 70 68 72 73 76 74 69 68 65 65 60 56
42 54 41 8 13 91 97 99 100 100 100 98 89 92 85 81 96 99 97 100 99 98 99 99 98 99 99 98 66 70 70 69 70 78 77 75 78 75 75 73 73 72 67 78
60 48 28 8 22 92 98 97 95 99 99 96 86 91 93 96 98 98 100 100 99 99 99 94 97 98 92 69 65 69 73 74 72 74 79 78 77 82 83 78 74 76 88 97
64 50 19 21 42 96 99 97 98 98 99 99 99 85 84 80 100 100 100 100 100 100 99 100 100 71 57 67 75 73 70 81 77 70 79 92 95 90 80 71 75 71 73 75
70 67 46 52 80 97 98 98 98 97 98 90 82 81 89 81 88 99 99 95 99 95 95 96 89 54 51 53 58 73 69 74 70 66 79 97 98 88 85 74 76 74 81 84
66 77 65 73 95 96 97 98 97 94 98 79 64 69 73 76 85 98 97 90 83 84 81 77 59 41 43 50 63 59 57 63 61 70 79 89 90 76 74 71 71 78 88 91
74 85 97 94 96 96 97 98 100 96 82 77 72 68 74 79 94 99 96 95 82 79 74 60 48 49 46 45 49 50 40 39 56 64 68 68 68 69 77 77 80 86 90 96
59 90 96 96 95 96 97 97 97 97 84 75 80 90 99 91 95 87 92 85 79 73 64 39 34 30 32 43 43 42 45 48 45 47 50 59 62 70 77 85 88 92 97 98
44 72 78 88 84 85 89 91 87 92 88 85 92 100 100 100 98 94 85 82 74 64 44 32 28 28 27 27 31 43 44 43 51 58 60 63 67 74 79 88 96 98 100 96
20 53 70 90 89 91 91 83 85 88 85 94 100 99 98 99 87 92 76 77 60 43 33 31 34 37 37 35 31 28 33 40 49 58 72 72 74 78 87 90 96 98 98 94
8 25 39 51 75 87 86 91 96 83 93 100 98 97 96 98 97 87 75 56 44 44 42 39 39 39 37 35 35 34 29 37 51 63 76 82 82 87 94 96 97 96 95 87